TimeCST,TemperatureF,Dew PointF,Humidity,Sea Level PressureIn,VisibilityMPH,Wind Direction,Wind SpeedMPH,Gust SpeedMPH,PrecipitationIn,Events,Conditions,WindDirDegrees,DateUTC
12:15 AM,32.0,15.8,51,29.87,10.0,WNW,5.8,-,N/A,,Clear,300,2013-01-12 06:15:00
12:35 AM,32.0,15.8,51,29.88,10.0,WNW,5.8,-,N/A,,Clear,300,2013-01-12 06:35:00
12:55 AM,30.2,17.6,60,29.88,10.0,West,5.8,-,N/A,,Clear,280,2013-01-12 06:55:00
1:15 AM,30.2,17.6,60,29.89,10.0,WNW,5.8,-,N/A,,Clear,300,2013-01-12 07:15:00
1:35 AM,32.0,19.4,60,29.89,10.0,NW,5.8,-,N/A,,Clear,320,2013-01-12 07:35:00
1:55 AM,32.0,19.4,60,29.91,10.0,Calm,Calm,-,N/A,,Clear,0,2013-01-12 07:55:00
2:15 AM,32.0,19.4,60,29.91,10.0,Calm,Calm,-,N/A,,Clear,0,2013-01-12 08:15:00
2:35 AM,30.2,19.4,64,29.90,10.0,Calm,Calm,-,N/A,,Clear,0,2013-01-12 08:35:00
3:15 AM,32.0,19.4,60,29.91,10.0,Calm,Calm,-,N/A,,Mostly Cloudy,0,2013-01-12 09:15:00
3:35 AM,32.0,19.4,60,29.92,10.0,ENE,3.5,-,N/A,,Mostly Cloudy,60,2013-01-12 09:35:00
3:55 AM,30.2,21.2,69,29.92,10.0,NNE,4.6,-,N/A,,Scattered Clouds,30,2013-01-12 09:55:00
4:15 AM,32.0,23.0,69,29.92,10.0,NNE,12.7,17.3,N/A,,Scattered Clouds,30,2013-01-12 10:15:00
4:35 AM,32.0,24.8,75,29.92,10.0,NNE,9.2,-,N/A,,Scattered Clouds,30,2013-01-12 10:35:00
4:55 AM,32.0,24.8,75,29.93,10.0,NNE,9.2,-,N/A,,Scattered Clouds,30,2013-01-12 10:55:00
5:15 AM,30.2,24.8,80,29.93,10.0,NNE,10.4,-,N/A,,Scattered Clouds,30,2013-01-12 11:15:00
5:35 AM,30.2,26.6,86,29.93,10.0,NE,12.7,-,N/A,,Mostly Cloudy,40,2013-01-12 11:35:00
5:55 AM,30.2,26.6,86,29.94,10.0,NNE,12.7,-,N/A,,Mostly Cloudy,30,2013-01-12 11:55:00
6:15 AM,30.2,24.8,80,29.95,10.0,NNE,11.5,-,N/A,,Mostly Cloudy,30,2013-01-12 12:15:00
6:35 AM,30.2,24.8,80,29.96,10.0,NE,10.4,-,N/A,,Mostly Cloudy,40,2013-01-12 12:35:00
6:55 AM,30.2,24.8,80,29.96,10.0,NE,9.2,-,N/A,,Mostly Cloudy,40,2013-01-12 12:55:00
7:15 AM,28.4,24.8,86,29.97,10.0,NNE,8.1,-,N/A,,Mostly Cloudy,30,2013-01-12 13:15:00
7:35 AM,28.4,24.8,86,29.97,10.0,NNE,8.1,-,N/A,,Mostly Cloudy,20,2013-01-12 13:35:00
7:55 AM,28.4,23.0,80,29.97,10.0,NNE,11.5,-,N/A,,Overcast,20,2013-01-12 13:55:00
8:15 AM,28.4,23.0,80,29.99,10.0,NNE,8.1,-,N/A,,Mostly Cloudy,30,2013-01-12 14:15:00
8:35 AM,28.4,21.2,74,29.99,10.0,NNE,11.5,17.3,N/A,,Overcast,30,2013-01-12 14:35:00
8:55 AM,28.4,21.2,74,30.00,10.0,NNE,10.4,-,N/A,,Overcast,30,2013-01-12 14:55:00
9:15 AM,28.4,21.2,74,30.01,10.0,NNE,9.2,-,N/A,,Overcast,30,2013-01-12 15:15:00
9:35 AM,28.4,19.4,69,30.01,10.0,NE,9.2,-,N/A,,Overcast,40,2013-01-12 15:35:00
9:55 AM,28.4,17.6,64,30.01,10.0,NE,16.1,-,N/A,,Overcast,40,2013-01-12 15:55:00
10:15 AM,28.4,15.8,59,30.00,10.0,NE,13.8,-,N/A,,Overcast,50,2013-01-12 16:15:00
10:35 AM,28.4,15.8,59,30.01,10.0,NE,15.0,-,N/A,,Overcast,40,2013-01-12 16:35:00
10:55 AM,28.4,15.8,59,30.00,10.0,NE,15.0,20.7,N/A,,Overcast,40,2013-01-12 16:55:00
11:15 AM,28.4,15.8,59,30.01,10.0,NNE,10.4,-,N/A,,Overcast,20,2013-01-12 17:15:00
11:35 AM,28.4,15.8,59,30.00,10.0,NNE,13.8,-,N/A,,Overcast,20,2013-01-12 17:35:00
11:55 AM,28.4,14.0,55,30.00,10.0,North,18.4,21.9,N/A,,Overcast,10,2013-01-12 17:55:00
12:15 PM,28.4,14.0,55,29.99,10.0,NNE,15.0,-,N/A,,Overcast,20,2013-01-12 18:15:00
12:35 PM,28.4,14.0,55,30.00,10.0,NNE,12.7,18.4,N/A,,Overcast,20,2013-01-12 18:35:00
12:55 PM,28.4,14.0,55,30.00,10.0,North,11.5,-,N/A,,Overcast,10,2013-01-12 18:55:00
1:15 PM,26.6,19.4,74,30.00,1.5,North,11.5,17.3,N/A,Snow,Light Snow,10,2013-01-12 19:15:00
1:35 PM,24.8,21.2,86,29.99,1.5,NNE,11.5,-,N/A,Snow,Light Snow,20,2013-01-12 19:35:00
1:55 PM,23.0,19.4,86,29.99,1.8,North,13.8,-,N/A,Snow,Light Snow,360,2013-01-12 19:55:00
2:15 PM,23.0,19.4,86,29.99,2.5,NNE,12.7,16.1,N/A,Snow,Light Snow,30,2013-01-12 20:15:00
2:35 PM,23.0,19.4,86,30.00,1.5,North,11.5,-,N/A,Snow,Light Snow,10,2013-01-12 20:35:00
2:55 PM,23.0,21.2,93,30.00,0.5,NNE,9.2,-,N/A,Snow,Snow,20,2013-01-12 20:55:00
3:15 PM,23.0,21.2,93,30.00,0.5,NNE,9.2,-,N/A,Snow,Snow,30,2013-01-12 21:15:00
3:35 PM,23.0,21.2,93,29.98,0.5,NNE,11.5,-,N/A,Snow,Snow,20,2013-01-12 21:35:00
3:55 PM,23.0,21.2,93,29.98,1.5,North,11.5,-,N/A,Snow,Light Snow,10,2013-01-12 21:55:00
4:15 PM,23.0,21.2,93,29.98,3.0,NNE,10.4,-,N/A,,Overcast,30,2013-01-12 22:15:00
4:35 PM,23.0,19.4,86,29.98,7.0,North,13.8,-,N/A,,Overcast,10,2013-01-12 22:35:00
4:55 PM,23.0,19.4,86,30.00,4.0,NNE,8.1,-,N/A,,Overcast,20,2013-01-12 22:55:00
5:15 PM,23.0,19.4,86,29.99,4.0,NNE,8.1,-,N/A,,Overcast,30,2013-01-12 23:15:00
5:35 PM,23.0,19.4,86,30.00,5.0,NNE,8.1,-,N/A,,Overcast,20,2013-01-12 23:35:00
5:55 PM,23.0,19.4,86,30.01,10.0,NNE,10.4,-,N/A,,Overcast,20,2013-01-12 23:55:00
6:15 PM,23.0,19.4,86,30.01,7.0,NNE,11.5,-,N/A,,Overcast,30,2013-01-13 00:15:00
6:35 PM,23.0,19.4,86,30.01,2.5,NNE,9.2,-,N/A,Snow,Light Snow,30,2013-01-13 00:35:00
6:55 PM,23.0,19.4,86,30.01,5.0,NNE,6.9,-,N/A,Snow,Light Snow,20,2013-01-13 00:55:00
7:15 PM,23.0,19.4,86,30.01,5.0,NE,8.1,-,N/A,Snow,Light Snow,40,2013-01-13 01:15:00
7:35 PM,21.2,19.4,93,30.02,5.0,NE,5.8,-,N/A,Snow,Light Snow,50,2013-01-13 01:35:00
7:55 PM,21.2,19.4,93,30.03,7.0,NE,4.6,-,N/A,Snow,Light Snow,40,2013-01-13 01:55:00
8:15 PM,21.2,17.6,86,30.03,7.0,NE,5.8,-,N/A,Snow,Light Snow,40,2013-01-13 02:15:00
8:35 PM,19.4,17.6,93,30.03,10.0,Calm,Calm,-,N/A,,Overcast,0,2013-01-13 02:35:00
8:55 PM,21.2,19.4,93,30.04,10.0,ENE,3.5,-,N/A,,Overcast,70,2013-01-13 02:55:00
9:15 PM,19.4,17.6,93,30.05,10.0,Calm,Calm,-,N/A,,Overcast,0,2013-01-13 03:15:00
9:55 PM,19.4,17.6,93,30.06,10.0,Calm,Calm,-,N/A,,Overcast,0,2013-01-13 03:55:00
10:15 PM,19.4,17.6,93,30.05,10.0,NNE,3.5,-,N/A,,Scattered Clouds,30,2013-01-13 04:15:00
10:35 PM,14.0,14.0,100,30.04,10.0,NNW,6.9,-,N/A,,Clear,330,2013-01-13 04:35:00
11:15 PM,15.8,14.0,93,30.05,10.0,North,6.9,-,N/A,,Mostly Cloudy,350,2013-01-13 05:15:00
11:35 PM,15.8,12.2,86,30.06,10.0,Calm,Calm,-,N/A,,Mostly Cloudy,0,2013-01-13 05:35:00
11:55 PM,15.8,10.4,79,30.07,10.0,NNE,5.8,-,N/A,,Mostly Cloudy,20,2013-01-13 05:55:00